Weather History for KDVT - July, 2013

Change the Weather History Date:

Monday, July 15, 2013

  Actual Average Record
Temperature  
Mean Temperature 98 °F -  
Max Temperature 106 °F 101 °F 116 °F (1998)
Min Temperature 89 °F 80 °F 68 °F (1999)
Cooling Degree Days 32    
Growing Degree Days 48 (Base 50)    
Moisture  
Dew Point 59 °F    
Average Humidity 29    
Maximum Humidity 40    
Minimum Humidity 20    
Precipitation  
Precipitation 0.00 in - - ()
Sea Level Pressure  
Sea Level Pressure 29.67 in    
Wind  
Wind Speed 6 mph (NNW)    
Max Wind Speed 24 mph    
Max Gust Speed 36 mph    
Visibility 10 miles    
Events      
Averages and records for this station are not official NWS values.
T = Trace of Precipitation, MM = Missing Value Source: NWS Daily Summary

Daily Weather History Graph

Daily Weather History Graph

Search for Another Location

Airport or City:

Trip Planner

Search our weather history database for the weather conditions in past years. The results will help you decide how hot, cold, wet, or windy it might be!

Date:

Astronomy

Jul. 15, 2013 Rise Set
Actual Time 5:29 AM MST 7:39 PM MST
Civil Twilight 5:00 AM MST 8:07 PM MST
Nautical Twilight 4:26 AM MST 8:42 PM MST
Astronomical Twilight 3:48 AM MST 9:19 PM MST
Moon 12:28 PM MST (7/15) 11:53 PM MST (7/15)
Length of Visible Light 15h 06m
Length of Day
14h 10m
Waxing Crescent, 46% of the Moon is Illuminated
Jul 15
Waxing Crescent
Jul 15
First Quarter
Jul 22
Full
Jul 29
Last Quarter
Aug 6
New

Hourly Weather History & Observations

Time (MST) Temp. Heat Index Dew Point Humidity Pressure Visibility Wind Dir Wind Speed Gust Speed Precip Events Conditions
12:53 AM 91.9 °F 92.5 °F 62.1 °F 37% 29.69 in 10.0 mi East 5.8 mph - N/A   Clear
1:53 AM 91.9 °F 92.9 °F 63.0 °F 38% 29.69 in 10.0 mi SSE 4.6 mph - N/A   Clear
2:53 AM 91.0 °F 90.9 °F 61.0 °F 36% 29.70 in 10.0 mi Calm Calm - N/A   Clear
3:53 AM 89.1 °F 89.3 °F 62.1 °F 40% 29.69 in 10.0 mi Calm Calm - N/A   Clear
4:53 AM 89.1 °F 89.3 °F 62.1 °F 40% 29.69 in 10.0 mi Calm Calm - N/A   Clear
5:53 AM 89.1 °F 89.0 °F 61.0 °F 39% 29.70 in 10.0 mi Calm Calm - N/A   Clear
6:53 AM 91.0 °F 91.5 °F 62.1 °F 38% 29.72 in 10.0 mi Calm Calm - N/A   Clear
7:53 AM 91.9 °F 91.8 °F 61.0 °F 35% 29.73 in 10.0 mi WNW 3.5 mph - N/A   Clear
8:53 AM 95.0 °F 94.8 °F 60.1 °F 31% 29.73 in 10.0 mi ENE 3.5 mph - N/A   Clear
9:53 AM 97.0 °F 96.9 °F 60.1 °F 29% 29.72 in 10.0 mi ESE 6.9 mph - N/A   Clear
10:53 AM 98.1 °F 98.1 °F 60.1 °F 28% 29.72 in 10.0 mi Variable 3.5 mph - N/A   Clear
11:53 AM 100.9 °F 101.6 °F 60.1 °F 26% 29.70 in 10.0 mi Variable 3.5 mph - N/A   Clear
12:53 PM 104.0 °F 104.6 °F 59.0 °F 23% 29.67 in 10.0 mi SW 11.5 mph 18.4 mph N/A   Clear
1:53 PM 105.1 °F 104.4 °F 57.0 °F 20% 29.64 in 10.0 mi WSW 11.5 mph - N/A   Clear
2:53 PM 106.0 °F 106.4 °F 57.9 °F 21% 29.61 in 10.0 mi SW 16.1 mph 26.5 mph N/A   Clear
3:53 PM 105.1 °F 106.4 °F 60.1 °F 23% 29.60 in 7.0 mi NW 24.2 mph 35.7 mph N/A   Scattered Clouds
4:03 PM 105.8 °F 106.8 °F 59.0 °F 22% 29.69 in 10.0 mi NW 20.7 mph 31.1 mph N/A   Partly Cloudy
4:53 PM 102.0 °F 101.6 °F 57.9 °F 23% 29.60 in 10.0 mi North 17.3 mph - N/A   Partly Cloudy
5:53 PM 100.9 °F 100.0 °F 57.0 °F 23% 29.60 in 10.0 mi NNW 19.6 mph - N/A   Clear
6:53 PM 99.0 °F 98.1 °F 57.0 °F 25% 29.61 in 10.0 mi North 13.8 mph - N/A   Clear
7:53 PM 99.0 °F 97.3 °F 55.0 °F 23% 29.62 in 10.0 mi NNE 5.8 mph - N/A   Clear
8:53 PM 97.0 °F 95.0 °F 55.0 °F 24% 29.65 in 10.0 mi NNW 10.4 mph - N/A   Clear
9:53 PM 95.0 °F 92.7 °F 54.0 °F 25% 29.68 in 10.0 mi WNW 4.6 mph - N/A   Clear
10:53 PM 93.0 °F 91.1 °F 55.0 °F 28% 29.68 in 10.0 mi NW 6.9 mph - N/A   Clear
11:53 PM 93.9 °F 92.6 °F 57.0 °F 29% 29.69 in 10.0 mi East 5.8 mph - N/A   Clear